Regional Weather Roundup
Issued by NWS

Home | Current Version | Previous Version | Text Only | Print | Product List | Glossary Off
Versions: 1 2 3 4 5 6 7 8 9 10 11 12 13 14 15 16 17 18 19 20 21 22 23 24 25 26 27 28 29 30 31 32 33 34 35 36 37 38 39 40 41 42 43 44 45 46 47 48 49

000
ASUS45 KBOI 030110
RWRID

IDAHO REGIONAL WEATHER ROUNDUP
NATIONAL WEATHER SERVICE BOISE ID
700 PM MDT SUN AUG 02 2015

NOTE: "FAIR" INDICATES FEW OR NO CLOUDS BELOW 12000 FEET
WITH NO SIGNIFICANT WEATHER AND/OR OBSTRUCTIONS TO VISIBILITY

IDZ012-014-030200-
SOUTHWEST IDAHO


CITY           SKY/WX    TMP DP  RH WIND       PRES   REMARKS
BOISE          CLOUDY    97  44  16 W6        29.77F HX  93
CALDWELL       CLOUDY    99  43  14 SW6       29.75F HX  94
MOUNTAIN HOME  PTSUNNY  100  32   9 N2        29.77F HX  94
$$

IDZ016-017-030200-
SOUTHCENTRAL IDAHO


CITY           SKY/WX    TMP DP  RH WIND       PRES   REMARKS
BURLEY         PTSUNNY   90  51  26 CALM      29.88F
JEROME         MOSUNNY   96  43  16 CALM      29.89F HX  92
TWIN FALLS     MOSUNNY   95  32  11 NE5       29.87F HX  90
$$

IDZ019>023-030200-
SOUTHEAST IDAHO


CITY           SKY/WX    TMP DP  RH WIND       PRES   REMARKS
IDAHO FALLS    MOSUNNY   91  40  16 NW5       29.95F
POCATELLO      SUNNY     92  46  20 NW3       29.93F
REXBURG        MOSUNNY   90  28  11 W3        29.97F
$$

IDZ006-010-011-018-031-032-030200-
CENTRAL IDAHO MOUNTAINS


CITY           SKY/WX    TMP DP  RH WIND       PRES   REMARKS
MCCALL         MOSUNNY   91  33  12 N7        29.96F
HAILEY         MOSUNNY   86  50  28 SE6       29.99F
STANLEY          N/A     82  34  17 SE5       30.11F
SALMON         MOSUNNY   93  45  18 CALM      29.84F
CHALLIS        PTSUNNY   88  39  17 W3        29.95F
$$

IDZ002-004-006-007-026-030200-
NORTHERN IDAHO


CITY           SKY/WX    TMP DP  RH WIND       PRES   REMARKS
LEWISTON       SUNNY    102  25   6 NW9       29.75F HX  95
LOWELL           N/A     88  46  23 CALM      29.73F
COEUR D`ALENE  MOSUNNY   97  32  10 SW7       29.81F HX  91
MULLAN PASS    MOSUNNY   81  27  14 VRB6      30.12F
$$



USA.gov is the U.S. government's official web portal to all federal, state and local government web resources and services.